Notices

What's New in latest Release from April 7th, 2021:

- Updated Glossary, including Speed of Maximum Gust, and Total Hourly Precipitation

- Updated national and regional climate services offices contacts and prices information

- Addition of station inventory lists for 1981-2010, 1971-2000, and 1961-1990 Normals.

If you haven't already, please take our survey and provide feedback about our website: https://eccc.sondage-survey.ca/f/LanguageSelection.aspx?s=442ca660-fcf1-47c0-95a9-59707d6fd709

Hourly Data Report for September 29, 2003

TORONTO CITY
ONTARIO

43°40'00.000" N
79°24'00.000" W
112.50 m
6158355
71508
XTO

Download Data

Hourly Data (September 2003)
Hourly Data Report for September 29, 2003
TIME
LST
Temp Definition
°C
Dew Point Definition
°C
Rel Hum Definition
%
Precip. Amount Definition
mm

Wind Dir Definition
10's deg

Wind Spd Definition
km/h
Visibility Definition
km
Stn Press Definition
kPa
Hmdx Definition


Wind Chill Definition


Weather Definition


00:00 11.1 8.4 83   LegendMM LegendMM LegendMM 99.49     LegendNANA
01:00 11.1 8.5 84   LegendMM LegendMM LegendMM 99.53     LegendNANA
02:00 10.4 8.0 85   LegendMM LegendMM LegendMM 99.53     LegendNANA
03:00 10.5 7.8 83   LegendMM LegendMM LegendMM 99.53     LegendNANA
04:00 10.0 7.6 85   LegendMM LegendMM LegendMM 99.56     LegendNANA
05:00 10.3 7.8 84   LegendMM LegendMM LegendMM 99.58     LegendNANA
06:00 10.4 7.9 84   LegendMM LegendMM LegendMM 99.64     LegendNANA
07:00 9.7 7.5 86   LegendMM LegendMM LegendMM 99.69     LegendNANA
08:00 11.1 8.0 81   LegendMM LegendMM LegendMM 99.73     LegendNANA
09:00 12.4 7.0 70   LegendMM LegendMM LegendMM 99.79     LegendNANA
10:00 12.3 6.0 65   LegendMM LegendMM LegendMM 99.83     LegendNANA
11:00 13.1 5.7 61   LegendMM LegendMM LegendMM 99.89     LegendNANA
12:00 13.7 6.0 60   LegendMM LegendMM LegendMM 99.95     LegendNANA
13:00 13.8 4.7 54   LegendMM LegendMM LegendMM 99.98     LegendNANA
14:00 13.6 4.9 56   LegendMM LegendMM LegendMM 100.00     LegendNANA
15:00 13.3 5.0 57   LegendMM LegendMM LegendMM 100.03     LegendNANA
16:00 13.4 5.3 58   LegendMM LegendMM LegendMM 100.09     LegendNANA
17:00 12.8 2.4 49   LegendMM LegendMM LegendMM 100.19     LegendNANA
18:00 11.2 2.2 54   LegendMM LegendMM LegendMM 100.30     LegendNANA
19:00 10.1 3.0 61   LegendMM LegendMM LegendMM 100.36     LegendNANA
20:00 9.5 2.8 63   LegendMM LegendMM LegendMM 100.42     LegendNANA
21:00 8.9 3.3 68   LegendMM LegendMM LegendMM 100.43     LegendNANA
22:00 8.5 3.4 70   LegendMM LegendMM LegendMM 100.44     LegendNANA
23:00 8.1 3.5 73   LegendMM LegendMM LegendMM 100.48     LegendNANA

Notes on Data Quality.

Legend

  • E = Estimated
  • M = Missing
  • NA = Not Available*
  • [empty] = Indicates an unobserved value
Date modified: